Location: Fort Worth, Tx
(32.7431°N, 97.3695°W)
Time: 09:21:32
(UTC-04:00)

A-11 Canister half - Pass Details

Date: 17 August 2024
Orbit: 1524 x 1684 km, 47.3° (Epoch: 13 September)

Event Time Altitude Azimuth Distance (km) Brightness Sun altitude
Rises 03:29:55 0° 294° (WNW) 4,931 11.7 -42.1°
Reaches altitude 10° 03:33:31 10° 303° (WNW) 3,948 11.2 -41.9°
Maximum altitude 03:42:40 36° 7° (N) 2,445 10.3 -41.2°
Drops below altitude 10° 03:51:43 10° 71° (ENE) 3,908 11.5 -40.4°
Sets 03:55:15 0° 80° (E) 4,876 12.0 -40.1°
